Home   Weather   Moers   Past weeks

Flag for Germany Past Weather in Moers, North Rhine-Westphalia, Germany — Yesterday and Last 2 Weeks

Now
45 °F

More clouds than sun.


Feels Like: 40 °F
Forecast: 42 / 51 °F
Wind: 9 mph from West

Location: Duesseldorf

Current Time: Feb 19, 2017 at 3:35:58 pm

Latest Report: Feb 19, 2017 at 3:20 pm


Visibility: 6 mi

Pressure: 30.12 "Hg

Humidity: 87%

Dew Point: 41 °F

Location of MoersLocation

Past Weather in Moers — Graph

°F

Moers Temperature Yesterday

Maximum temperature yesterday: 48 °F (at 11:50 am)
Minimum temperature yesterday: 36 °F (at 8:50 pm)
Average temperature yesterday: 43 °F

High & Low Weather Summary for the Past Weeks

 TemperatureHumidityPressure
High61 °F (Feb 15, 3:50 pm)100% (Feb 6, 9:20 am)30.51 "Hg (Feb 6, 9:20 am)
Low27 °F (Feb 13, 5:50 am)38% (Feb 14, 3:50 pm)29.47 "Hg (Feb 4, 2:20 pm)
Average40 °F77%30.19 "Hg
* Reported Feb 4 2:20 pm — Feb 19 2:20 pm, Moers, Weather by CustomWeather, © 2017

Note: Actual official high and low records may vary slightly from our data, if they occured in-between our weather recording intervals... More about our weather records

Advertising

Moers Weather History for the Previous 24 Hours

Scroll right to see more
 ConditionsComfort  
Time TempWeatherWind HumidityBarometerVisibility
2:20 pm
Sun, Feb 19
45 °FLight rain. Mostly cloudy.6 mph87%30.12 "Hg6 mi
1:50 pm45 °FLight rain. Partly sunny.9 mph87%30.15 "HgN/A
1:20 pm46 °FLight rain. Partly sunny.10 mph76%30.15 "Hg5 mi
12:50 pm46 °FLight rain. Partly sunny.12 mph71%30.15 "HgN/A
12:20 pm46 °FPartly sunny.14 mph71%30.15 "HgN/A
11:50 am46 °FSunny.10 mph71%30.18 "Hg10 mi
11:20 am43 °FLight rain. Broken clouds.10 mph76%30.18 "HgN/A
10:50 am41 °FLight rain. Clear.9 mph81%30.18 "HgN/A
10:20 am41 °FSunny.13 mph76%30.18 "Hg10 mi
9:50 am41 °FSunny.12 mph76%30.18 "Hg10 mi
9:20 am39 °FSunny.12 mph81%30.18 "Hg10 mi
8:50 am36 °FPassing clouds.10 mph87%30.21 "HgN/A
8:20 am36 °FSunny.13 mph87%30.21 "Hg10 mi
7:50 am36 °FSunny.13 mph87%30.18 "Hg10 mi
7:20 am36 °FClear.9 mph81%30.18 "Hg10 mi
6:50 am36 °FPartly cloudy.9 mph87%30.21 "HgN/A
6:20 am36 °FClear.9 mph87%30.21 "Hg10 mi
5:50 am34 °FClear.9 mph87%30.21 "Hg10 mi
5:20 am36 °FPassing clouds.8 mph81%30.21 "HgN/A
4:50 am36 °FPassing clouds.7 mph87%30.21 "HgN/A
4:20 am36 °FPassing clouds.7 mph87%30.21 "HgN/A
3:50 am36 °FPassing clouds.9 mph81%30.21 "HgN/A
3:20 am36 °FPassing clouds.9 mph87%30.24 "HgN/A
2:50 am36 °FPassing clouds.10 mph87%30.24 "HgN/A
2:20 am36 °FPassing clouds.10 mph81%30.24 "HgN/A
1:50 am36 °FClear.10 mph81%30.27 "Hg10 mi
1:20 am36 °FClear.7 mph87%30.27 "Hg10 mi
12:50 am36 °FClear.7 mph87%30.27 "Hg10 mi
12:20 am36 °FClear.9 mph87%30.27 "Hg10 mi
11:50 pm
Sat, Feb 18
37 °FClear.8 mph81%30.27 "Hg10 mi
11:20 pm37 °FPassing clouds.9 mph81%30.27 "HgN/A
10:50 pm37 °FPassing clouds.8 mph81%30.27 "HgN/A
10:20 pm37 °FPassing clouds.8 mph81%30.27 "HgN/A
9:50 pm36 °FPassing clouds.7 mph87%30.27 "HgN/A
9:20 pm37 °FPassing clouds.6 mph81%30.27 "HgN/A
8:50 pm36 °FClear.5 mph87%30.27 "Hg10 mi
8:20 pm37 °FPassing clouds.5 mph81%30.27 "HgN/A
7:50 pm41 °FPassing clouds.5 mph70%30.30 "HgN/A
7:20 pm41 °FPassing clouds.6 mph76%30.30 "HgN/A
6:50 pm43 °FPassing clouds.6 mph71%30.30 "HgN/A
6:20 pm45 °FPassing clouds.7 mph66%30.30 "HgN/A
5:50 pm46 °FPartly sunny.5 mph62%30.30 "HgN/A
5:20 pm48 °FPartly sunny.2 mph58%30.30 "HgN/A
4:50 pm48 °FPartly sunny.2 mph58%30.30 "HgN/A
4:20 pm48 °FPartly sunny.3 mph58%30.30 "HgN/A
3:50 pm48 °FPartly sunny.5 mph58%30.30 "HgN/A
3:20 pm48 °FPartly sunny.2 mph58%30.30 "HgN/A
Weather by CustomWeather, © 2017

See weather overviewHow to use our weather pages